When you browse on this site, cookies collect data to enhance your experience and personalize the content and advertising you see.
Visit our Privacy Policy to learn more. By continuing to use the site, you agree to this use of cookies and data.
  • In Czech Republic
  • List of Countries
  • For 7 days
  • Water Temperature
  • Weather Map
  • Weather Widgets
  • user-avatar
    Login

    Hourly Weather Wien

    Today, 4 April, Saturday

    Time Temperature Precipitation Wind Pressure Humidity
    00:00 +7°C° 0 mm 1 mps 746 mmHg 79%
    01:00 +6°C° 0 mm 1 mps 746 mmHg 83%
    02:00 +6°C° 0 mm 1 mps 746 mmHg 84%
    03:00 +5°C° 0 mm 1 mps 747 mmHg 85%
    04:00 +5°C° 0 mm 1 mps 747 mmHg 86%
    05:00 +6°C° 0 mm 1 mps 747 mmHg 83%
    06:00 +6°C° 0 mm 1 mps 748 mmHg 81%
    07:00 +7°C° 0 mm 1 mps 748 mmHg 78%
    08:00 +9°C° 0 mm 1 mps 748 mmHg 69%
    09:00 +10°C° 0 mm 1 mps 749 mmHg 60%
    10:00 +12°C° 0 mm 1 mps 749 mmHg 52%
    11:00 +13°C° 0 mm 2 mps 749 mmHg 49%
    12:00 +13°C° 0 mm 2 mps 749 mmHg 47%
    13:00 +14°C° 0 mm 2 mps 749 mmHg 44%
    14:00 +14°C° 0 mm 2 mps 749 mmHg 45%
    15:00 +13°C° 0 mm 3 mps 749 mmHg 46%
    16:00 +13°C° 0 mm 3 mps 748 mmHg 46%
    17:00 +13°C° 0 mm 2 mps 749 mmHg 51%
    18:00 +10°C° 0 mm 2 mps 749 mmHg 57%
    19:00 +9°C° 0 mm 2 mps 750 mmHg 62%
    20:00 +8°C° 0 mm 2 mps 750 mmHg 62%
    21:00 +7°C° 0 mm 2 mps 751 mmHg 63%
    22:00 +7°C° 0 mm 2 mps 751 mmHg 63%
    23:00 +7°C° 0 mm 1 mps 752 mmHg 64%

    Tomorrow, 5 April, Sunday

    Time Temperature Precipitation Wind Pressure Humidity
    00:00 +7°C° 0 mm 1 mps 752 mmHg 64%
    01:00 +6°C° 0 mm 1 mps 752 mmHg 65%
    02:00 +6°C° 0 mm 1 mps 752 mmHg 66%
    03:00 +5°C° 0 mm 1 mps 752 mmHg 68%
    04:00 +5°C° 0 mm 1 mps 752 mmHg 69%
    05:00 +5°C° 0 mm 1 mps 752 mmHg 68%
    06:00 +6°C° 0 mm 1 mps 753 mmHg 66%
    07:00 +7°C° 0 mm 1 mps 753 mmHg 64%
    08:00 +7°C° 0 mm 2 mps 753 mmHg 58%
    09:00 +9°C° 0 mm 3 mps 753 mmHg 51%
    10:00 +11°C° 0 mm 4 mps 753 mmHg 44%
    11:00 +12°C° 0 mm 4 mps 753 mmHg 42%
    12:00 +13°C° 0 mm 4 mps 752 mmHg 40%
    13:00 +14°C° 0 mm 4 mps 752 mmHg 38%
    14:00 +14°C° 0 mm 4 mps 752 mmHg 38%
    15:00 +14°C° 0 mm 4 mps 751 mmHg 39%
    16:00 +14°C° 0 mm 4 mps 751 mmHg 39%
    17:00 +13°C° 0 mm 4 mps 751 mmHg 45%
    18:00 +12°C° 0 mm 3 mps 751 mmHg 52%
    19:00 +10°C° 0 mm 3 mps 752 mmHg 58%
    20:00 +10°C° 0 mm 3 mps 752 mmHg 60%
    21:00 +9°C° 0 mm 3 mps 752 mmHg 62%
    22:00 +9°C° 0 mm 3 mps 753 mmHg 64%
    23:00 +7°C° 0 mm 4 mps 752 mmHg 66%

    Day after tomorrow, 6 April, Monday

    Time Temperature Precipitation Wind Pressure Humidity
    00:00 +7°C° 0 mm 4 mps 752 mmHg 68%
    01:00 +7°C° 0 mm 4 mps 752 mmHg 70%
    02:00 +6°C° 0 mm 4 mps 752 mmHg 71%
    03:00 +6°C° 0 mm 4 mps 752 mmHg 72%
    04:00 +6°C° 0 mm 4 mps 752 mmHg 72%
    05:00 +6°C° 0 mm 5 mps 752 mmHg 71%
    06:00 +7°C° 0 mm 5 mps 752 mmHg 69%
    07:00 +7°C° 0 mm 5 mps 753 mmHg 68%
    08:00 +9°C° 0 mm 6 mps 753 mmHg 62%
    09:00 +11°C° 0 mm 7 mps 753 mmHg 55%
    10:00 +13°C° 0 mm 8 mps 753 mmHg 49%
    11:00 +15°C° 0 mm 8 mps 753 mmHg 45%
    12:00 +15°C° 0 mm 8 mps 753 mmHg 41%
    13:00 +16°C° 0 mm 8 mps 753 mmHg 37%
    14:00 +16°C° 0 mm 8 mps 753 mmHg 38%
    15:00 +15°C° 0 mm 8 mps 753 mmHg 39%
    16:00 +15°C° 0 mm 8 mps 752 mmHg 40%
    17:00 +14°C° 0 mm 7 mps 753 mmHg 42%
    18:00 +11°C° 0 mm 7 mps 753 mmHg 45%
    19:00 +10°C° 0 mm 6 mps 753 mmHg 47%
    20:00 +10°C° 0 mm 6 mps 754 mmHg 46%
    21:00 +9°C° 0 mm 6 mps 754 mmHg 44%
    22:00 +8°C° 0 mm 6 mps 755 mmHg 43%
    23:00 +8°C° 0 mm 5 mps 755 mmHg 43%

    7 April, Tuesday

    Time Temperature Precipitation Wind Pressure Humidity
    00:00 +7°C° 0 mm 5 mps 755 mmHg 43%
    01:00 +7°C° 0 mm 5 mps 755 mmHg 43%
    02:00 +6°C° 0 mm 4 mps 755 mmHg 46%
    03:00 +6°C° 0 mm 4 mps 755 mmHg 48%
    04:00 +5°C° 0 mm 4 mps 755 mmHg 51%
    05:00 +6°C° 0 mm 4 mps 755 mmHg 51%
    06:00 +6°C° 0 mm 4 mps 755 mmHg 51%
    07:00 +6°C° 0 mm 4 mps 756 mmHg 52%
    08:00 +8°C° 0 mm 5 mps 756 mmHg 46%
    09:00 +10°C° 0 mm 5 mps 756 mmHg 40%
    10:00 +13°C° 0 mm 6 mps 756 mmHg 33%
    11:00 +14°C° 0 mm 6 mps 755 mmHg 31%
    12:00 +15°C° 0 mm 6 mps 755 mmHg 29%
    13:00 +16°C° 0 mm 7 mps 755 mmHg 27%
    14:00 +16°C° 0 mm 6 mps 755 mmHg 29%
    15:00 +16°C° 0 mm 6 mps 754 mmHg 30%
    16:00 +16°C° 0 mm 6 mps 754 mmHg 32%
    17:00 +14°C° 0 mm 5 mps 754 mmHg 37%
    18:00 +13°C° 0 mm 5 mps 754 mmHg 41%
    19:00 +11°C° 0 mm 4 mps 755 mmHg 46%
    20:00 +10°C° 0 mm 4 mps 755 mmHg 48%
    21:00 +10°C° 0 mm 4 mps 755 mmHg 50%
    22:00 +9°C° 0 mm 3 mps 755 mmHg 52%
    23:00 +8°C° 0 mm 3 mps 755 mmHg 54%

    8 April, Wednesday

    Time Temperature Precipitation Wind Pressure Humidity
    00:00 +8°C° 0 mm 3 mps 755 mmHg 55%
    01:00 +8°C° 0 mm 3 mps 755 mmHg 56%
    02:00 +7°C° 0 mm 3 mps 755 mmHg 58%
    03:00 +7°C° 0 mm 3 mps 755 mmHg 59%
    04:00 +6°C° 0 mm 2 mps 755 mmHg 61%
    05:00 +7°C° 0 mm 3 mps 755 mmHg 60%
    06:00 +7°C° 0 mm 3 mps 755 mmHg 60%
    07:00 +8°C° 0 mm 3 mps 755 mmHg 59%
    08:00 +10°C° 0 mm 3 mps 754 mmHg 53%
    09:00 +12°C° 0 mm 4 mps 754 mmHg 47%
    10:00 +15°C° 0 mm 5 mps 754 mmHg 41%
    11:00 +16°C° 0 mm 5 mps 753 mmHg 38%
    12:00 +17°C° 0 mm 5 mps 753 mmHg 35%
    13:00 +19°C° 0 mm 5 mps 752 mmHg 32%
    14:00 +17°C° 0 mm 5 mps 752 mmHg 33%
    15:00 +17°C° 0 mm 5 mps 752 mmHg 34%
    16:00 +17°C° 0 mm 5 mps 751 mmHg 35%
    17:00 +17°C° 0 mm 4 mps 751 mmHg 40%
    18:00 +14°C° 0 mm 3 mps 751 mmHg 45%
    19:00 +12°C° 0 mm 3 mps 751 mmHg 49%
    20:00 +12°C° 0 mm 2 mps 751 mmHg 51%
    21:00 +12°C° 0 mm 2 mps 752 mmHg 53%
    22:00 +10°C° 0 mm 2 mps 752 mmHg 55%
    23:00 +10°C° 0 mm 1 mps 752 mmHg 56%

    9 April, Thursday

    Time Temperature Precipitation Wind Pressure Humidity
    00:00 +10°C° 0 mm 1 mps 752 mmHg 57%
    01:00 +9°C° 0 mm 1 mps 751 mmHg 59%
    02:00 +9°C° 0 mm 1 mps 751 mmHg 60%
    03:00 +8°C° 0 mm 1 mps 751 mmHg 62%
    04:00 +7°C° 0 mm 0 mps 751 mmHg 64%
    05:00 +7°C° 0 mm 0 mps 751 mmHg 62%
    06:00 +8°C° 0 mm 0 mps 752 mmHg 60%
    07:00 +9°C° 0 mm 0 mps 752 mmHg 59%
    08:00 +11°C° 0 mm 0 mps 751 mmHg 53%
    09:00 +13°C° 0 mm 0 mps 751 mmHg 48%
    10:00 +15°C° 0 mm 0 mps 751 mmHg 42%
    11:00 +17°C° 0 mm 0 mps 751 mmHg 39%
    12:00 +20°C° 0 mm 1 mps 751 mmHg 35%
    13:00 +21°C° 0 mm 1 mps 751 mmHg 32%
    14:00 +21°C° 0 mm 1 mps 750 mmHg 31%
    15:00 +21°C° 0 mm 1 mps 750 mmHg 31%
    16:00 +21°C° 0 mm 1 mps 749 mmHg 31%
    17:00 +19°C° 0 mm 1 mps 749 mmHg 36%
    18:00 +16°C° 0 mm 1 mps 750 mmHg 40%
    19:00 +13°C° 0 mm 0 mps 750 mmHg 45%
    20:00 +12°C° 0 mm 0 mps 750 mmHg 47%
    21:00 +12°C° 0 mm 0 mps 750 mmHg 48%
    22:00 +11°C° 0 mm 0 mps 750 mmHg 50%
    23:00 +12°C° 0 mm 1 mps 750 mmHg 52%
    Show more